Milas, Turkey

7:06 AM +03 on May 30, 2017 (GMT +0300)
Bodrum

Weather History for LTFE - September, 2012

Change the Weather History Date:

Thursday, September 27, 2012

  Actual Average Record
Temperature  
Mean Temperature 73 °F -  
Max Temperature 91 °F - - ()
Min Temperature 55 °F - - ()
Cooling Degree Days 8    
Growing Degree Days 23 (Base 50)    
Moisture  
Dew Point 56 °F    
Average Humidity 60    
Maximum Humidity 82    
Minimum Humidity 27    
Precipitation  
Precipitation 0.00 in - - ()
Sea Level Pressure  
Sea Level Pressure 29.93 in    
Wind  
Wind Speed 4 mph ()    
Max Wind Speed 16 mph    
Max Gust Speed -    
Visibility 6.2 miles    
Events      
T = Trace of Precipitation, MM = Missing Value Source: Averaged Metar Reports

Daily Weather History Graph

Daily Weather History Graph

Search for Another Location

Airport or City:

Trip Planner

Search our weather history database for the weather conditions in past years. The results will help you decide how hot, cold, wet, or windy it might be!

Date:

Astronomy

Sep. 27, 2012 Rise Set
Actual Time 7:01 AM EEST 6:58 PM EEST
Civil Twilight 6:35 AM EEST 7:24 PM EEST
Nautical Twilight 6:05 AM EEST 7:54 PM EEST
Astronomical Twilight 5:34 AM EEST 8:24 PM EEST
Moon 5:17 PM EEST (9/27) 4:13 AM EEST (9/27)
Length of Visible Light 12h 48m
Length of Day
11h 56m
Waxing Gibbous, 92% of the Moon is Illuminated
Sep 27
Waxing Gibbous
Sep 30
Full
Oct 8
Last Quarter
Oct 15
New
Oct 22
First Quarter

Hourly Weather History & Observations

Time (EEST) Temp. Heat Index Dew Point Humidity Pressure Visibility Wind Dir Wind Speed Gust Speed Precip Events Conditions
12:20 AM 64.4 °F - 55.4 °F 73% 29.95 in - SSE 3.5 mph - N/A   Clear
12:50 AM 64.4 °F - 57.2 °F 77% 29.95 in - WNW 2.3 mph - N/A   Clear
1:20 AM 62.6 °F - 55.4 °F 77% 29.95 in - East 2.3 mph - N/A   Clear
1:50 AM 60.8 °F - 55.4 °F 82% 29.95 in - SE 4.6 mph - N/A   Clear
2:20 AM 60.8 °F - 53.6 °F 77% 29.95 in - Variable 1.2 mph - N/A   Clear
2:50 AM 59.0 °F - 51.8 °F 77% 29.95 in - East 3.5 mph - N/A   Clear
3:20 AM 59.0 °F - 53.6 °F 82% 29.95 in - SE 3.5 mph - N/A   Clear
3:50 AM 59.0 °F - 53.6 °F 82% 29.95 in - Variable 1.2 mph - N/A   Clear
4:20 AM 60.8 °F - 53.6 °F 77% 29.95 in - Variable 2.3 mph - N/A   Clear
4:50 AM 57.2 °F - 51.8 °F 82% 29.92 in - SE 2.3 mph - N/A   Clear
5:20 AM 57.2 °F - 51.8 °F 82% 29.92 in - SE 3.5 mph - N/A   Clear
5:50 AM 57.2 °F - 51.8 °F 82% 29.92 in - Variable 2.3 mph - N/A   Clear
6:20 AM 57.2 °F - 51.8 °F 82% 29.92 in - SE 3.5 mph - N/A   Clear
6:50 AM 55.4 °F - 50.0 °F 82% 29.92 in - NE 3.5 mph - N/A   Clear
7:20 AM 57.2 °F - 51.8 °F 82% 29.95 in - Calm Calm - N/A   Clear
7:50 AM 62.6 °F - 53.6 °F 72% 29.95 in - Variable 1.2 mph - N/A   Clear
8:20 AM 62.6 °F - 51.8 °F 68% 29.95 in - Variable 2.3 mph - N/A   Clear
8:50 AM 68.0 °F - 51.8 °F 56% 29.95 in - Variable 1.2 mph - N/A   Clear
9:20 AM 71.6 °F - 53.6 °F 53% 29.95 in - Variable 2.3 mph - N/A   Clear
9:50 AM 77.0 °F - 51.8 °F 41% 29.98 in - Variable 2.3 mph - N/A   Clear
10:20 AM 80.6 °F - 51.8 °F 37% 29.95 in - Variable 2.3 mph - N/A   Clear
10:50 AM 82.4 °F 81.4 °F 53.6 °F 37% 29.95 in - Variable 3.5 mph - N/A   Clear
11:20 AM 84.2 °F 83.5 °F 57.2 °F 40% 29.95 in - WNW 5.8 mph - N/A   Clear
11:50 AM 84.2 °F 83.0 °F 55.4 °F 37% 29.95 in - WNW 6.9 mph - N/A   Clear
12:20 PM 86.0 °F 84.9 °F 57.2 °F 37% 29.95 in - West 10.4 mph - N/A   Clear
12:50 PM 86.0 °F 84.9 °F 57.2 °F 37% 29.95 in - WNW 16.1 mph - N/A   Clear
1:20 PM 89.6 °F - 51.8 °F 27% 29.92 in - West 13.8 mph - N/A   Clear
1:50 PM 89.6 °F - 51.8 °F 27% 29.92 in - West 11.5 mph - N/A   Clear
2:20 PM 89.6 °F 87.3 °F 53.6 °F 29% 29.92 in 6.2 mi WNW 13.8 mph - N/A   Partly Cloudy
2:50 PM 89.6 °F 87.3 °F 53.6 °F 29% 29.92 in 6.2 mi West 11.5 mph - N/A   Partly Cloudy
3:20 PM 91.4 °F 89.1 °F 53.6 °F 28% 29.89 in 6.2 mi West 11.5 mph - N/A   Partly Cloudy
3:50 PM 89.6 °F 87.7 °F 55.4 °F 31% 29.89 in 6.2 mi WSW 12.7 mph - N/A   Scattered Clouds
4:20 PM 87.8 °F 85.7 °F 53.6 °F 31% 29.89 in 6.2 mi West 12.7 mph - N/A   Scattered Clouds
4:50 PM 86.0 °F 86.6 °F 62.6 °F 45% 29.89 in 6.2 mi West 13.8 mph - N/A   Scattered Clouds
5:20 PM 84.2 °F 83.8 °F 59.0 °F 42% 29.89 in 6.2 mi WSW 11.5 mph - N/A   Scattered Clouds
5:50 PM 84.2 °F 83.8 °F 59.0 °F 42% 29.89 in 6.2 mi WSW 6.9 mph - N/A   Scattered Clouds
6:20 PM 82.4 °F 82.9 °F 60.8 °F 48% 29.89 in 6.2 mi West 4.6 mph - N/A   Scattered Clouds
6:50 PM 78.8 °F - 62.6 °F 57% 29.92 in - East 3.5 mph - N/A   Clear
7:20 PM 77.0 °F - 64.4 °F 65% 29.92 in - NNE 4.6 mph - N/A   Clear
7:50 PM 75.2 °F - 64.4 °F 69% 29.92 in - Variable 1.2 mph - N/A   Clear
8:20 PM 73.4 °F - 64.4 °F 73% 29.92 in - Variable 1.2 mph - N/A   Clear
8:50 PM 73.4 °F - 62.6 °F 69% 29.95 in - Calm Calm - N/A   Clear
9:20 PM 71.6 °F - 62.6 °F 73% 29.95 in - SE 2.3 mph - N/A   Clear
9:50 PM 73.4 °F - 60.8 °F 65% 29.95 in - Variable 2.3 mph - N/A   Clear
10:20 PM 69.8 °F - 60.8 °F 73% 29.95 in - Variable 1.2 mph - N/A   Clear
10:50 PM 66.2 °F - 59.0 °F 78% 29.95 in - NE 1.2 mph - N/A   Clear
11:20 PM 68.0 °F - 60.8 °F 78% 29.95 in - Variable 2.3 mph - N/A   Clear
11:50 PM 69.8 °F - 59.0 °F 68% 29.95 in - Variable 2.3 mph - N/A   Clear